Regional Weather Roundup
Issued by NWS

Home | Current Version | Previous Version | Graphics & Text | Print | Product List | Glossary On
Versions: 1 2 3 4 5 6 7 8 9 10 11 12 13 14 15 16 17 18 19 20 21 22 23 24 25 26 27 28 29 30 31 32 33 34 35 36 37 38 39 40 41 42 43 44 45 46 47 48 49 50
000
ASUS43 KBIS 190210
RWRND

NORTH DAKOTA REGIONAL WEATHER ROUNDUP
NATIONAL WEATHER SERVICE BISMARCK ND
900 PM CDT FRI APR 18 2014

NOTE: "FAIR" INDICATES FEW OR NO CLOUDS BELOW 12,000 FEET WITH NO
SIGNIFICANT WEATHER AND/OR OBSTRUCTIONS TO VISIBILITY.


NDZ001>003-009>011-017-190300-
NORTHWEST NORTH DAKOTA

CITY           SKY/WX    TMP DP  RH WIND       PRES   REMARKS
WILLISTON      CLOUDY    45  43  93 W6        29.65F
MINOT          CLOUDY    46  33  60 E22G28    29.72F
MINOT AFB      CLOUDY    45  35  66 SE12      29.73S
$$

NDZ018>021-031>035-040>046-190300-
SOUTHWEST NORTH DAKOTA

CITY           SKY/WX    TMP DP  RH WIND       PRES   REMARKS
BISMARCK       CLOUDY    50  39  66 E18       29.61F
DICKINSON      LGT RAIN  50  41  71 NW25G35   29.64R
GARRISON         N/A     46  36  68 E20       29.67F
HETTINGER ARPT CLOUDY    53  40  61 NW17G30   29.64R
$$

NDZ004>008-012>016-024-026-027-054-190300-
NORTHEAST NORTH DAKOTA

CITY           SKY/WX    TMP DP  RH WIND       PRES   REMARKS
GRAND FORKS    CLOUDY    46  28  49 SE26G40   29.96F
GRND FRKS AFB  CLOUDY    45  29  53 SE21G29   29.95F
DEVILS LAKE    CLOUDY    43  27  52 SE24G35   29.82F
$$

NDZ022-023-025-028>030-036>039-047>053-190300-
SOUTHEAST NORTH DAKOTA

CITY           SKY/WX    TMP DP  RH WIND       PRES   REMARKS
FARGO          CLOUDY    44  28  53 SE29G39   29.95F
JAMESTOWN      CLOUDY    45  35  68 SE29G38   29.77F
$$




USA.gov is the U.S. government's official web portal to all federal, state and local government web resources and services.